Theta_e
312 313 315 318 319 320 320 318 311 312 313 310 312 311 311 315 318 317 318 321 319 332 338 339 337 330 340 342 342 343 343 346 344 337 334 347 349 349 352 352 351 349 348 347 346 344 339 334 333 332 331 331 329 329 327 326 325 325 325 324 325 324 328 333 335 336 338 335 329 328 335 338 338 337 337 337 338 338 339 340 342 343 342 342 343 343 343 343 342 342 341 341 340 340 338 337 335
315 318 320 321 319 320 320 316 311 313 312 308 310 312 312 315 318 316 320 327 328 342 344 343 344 342 345 344 343 343 344 345 343 344 347 350 349 350 352 352 351 349 348 347 346 344 341 336 332 332 331 330 329 327 325 324 322 321 322 323 324 325 332 336 336 337 337 336 334 334 336 337 338 337 337 338 338 338 340 342 342 343 343 342 342 342 343 343 342 342 340 340 340 339 338 337 335
318 321 322 322 320 319 319 314 311 312 309 307 309 312 313 314 318 317 319 328 333 340 338 338 343 345 344 341 343 342 344 346 345 345 347 349 350 351 351 352 351 349 348 347 346 343 343 338 332 333 330 329 328 326 324 323 321 322 325 327 329 332 337 337 336 337 336 335 335 336 336 337 339 338 337 338 338 338 340 342 342 342 343 343 342 342 342 342 342 342 341 341 339 337 335 334 333
319 321 322 323 319 318 319 315 314 311 308 308 308 311 314 316 317 315 317 318 321 324 327 339 345 345 344 340 345 345 346 346 347 347 347 349 349 350 351 352 350 349 348 347 346 344 345 339 332 332 331 329 327 325 323 322 324 326 329 332 335 337 338 337 337 337 337 337 335 334 335 336 338 338 337 338 338 338 339 341 342 341 342 343 342 342 342 342 342 341 340 338 336 333 332 331 331
318 321 322 323 320 319 318 315 315 310 308 309 308 312 314 315 315 315 317 314 317 313 317 340 347 344 346 346 347 348 348 346 347 347 348 348 348 350 351 351 350 349 348 346 345 345 345 339 333 332 331 329 328 325 323 323 327 330 332 336 338 338 338 338 338 338 338 340 338 336 336 336 337 338 337 337 338 338 339 340 341 341 341 341 341 341 341 340 340 338 335 333 332 330 331 331 332
317 321 320 321 319 317 316 314 314 312 311 311 310 313 315 314 315 316 316 317 326 321 317 338 346 343 348 347 346 347 346 346 347 346 347 348 348 350 351 350 350 349 347 347 345 345 345 339 335 333 332 330 328 325 324 324 328 332 335 337 338 337 338 337 338 338 338 339 338 338 338 337 337 337 338 337 338 338 339 339 340 341 340 340 340 341 340 340 339 334 331 330 330 329 330 331 332
318 321 319 318 317 315 318 315 314 315 314 313 313 315 315 314 315 317 317 317 329 335 334 343 346 345 348 347 346 346 344 346 345 345 346 348 350 350 350 350 350 348 347 346 345 346 344 339 335 334 332 330 329 326 325 325 329 335 336 337 337 337 337 336 338 337 338 339 338 338 338 338 337 337 338 337 338 338 339 339 339 339 339 339 340 340 339 338 336 331 330 330 329 329 330 331 331
318 319 317 317 317 316 318 317 316 317 315 314 314 316 317 317 316 317 318 316 319 336 346 347 345 345 347 347 349 346 344 345 345 346 346 349 350 350 350 350 350 348 347 346 345 346 343 339 336 335 332 330 329 326 325 326 329 333 334 336 336 336 337 337 338 338 337 338 338 339 338 338 337 337 338 337 337 337 338 338 338 338 338 339 339 339 338 336 333 330 330 329 329 330 330 331 331
316 316 315 316 317 315 316 315 315 315 315 315 315 316 318 317 317 317 318 316 316 331 347 346 343 343 346 349 349 345 343 345 345 346 347 348 350 350 349 349 349 347 347 346 345 345 343 340 338 336 333 332 329 327 327 326 327 329 331 335 336 335 337 336 337 337 337 338 338 338 338 338 336 336 337 336 337 337 338 337 338 337 338 339 338 338 337 335 333 331 329 329 331 331 331 331 331
316 314 315 315 315 313 314 313 314 314 314 315 314 315 316 316 315 317 316 315 320 334 347 345 343 344 348 351 349 345 344 344 345 346 347 349 349 350 349 349 349 347 347 346 345 346 344 341 339 336 334 334 331 330 330 328 326 328 332 335 336 334 335 337 337 338 337 338 338 338 338 337 335 336 336 336 337 337 337 338 337 337 338 337 338 338 336 334 333 331 329 329 331 332 332 332 331
317 314 313 314 313 312 312 311 313 314 314 315 316 316 315 314 314 315 315 322 334 343 347 344 343 348 350 351 349 345 343 344 345 346 347 348 349 349 349 349 348 347 347 346 345 346 344 342 340 338 337 336 334 332 331 330 327 329 334 336 337 336 335 337 338 338 336 336 338 338 338 336 334 334 334 334 336 336 337 337 336 337 337 337 337 337 334 333 332 330 328 330 332 332 332 331 331
317 315 313 314 313 311 312 312 313 315 317 316 316 315 312 313 314 315 315 328 345 347 346 344 343 347 351 352 349 344 342 344 345 345 347 348 349 348 349 348 348 347 346 345 345 346 344 342 341 339 339 338 336 335 333 332 330 330 334 335 337 337 334 335 338 338 336 335 336 338 337 335 333 333 333 333 334 335 334 334 333 334 335 336 337 335 332 332 331 329 328 331 333 333 332 332 331
317 315 314 313 312 313 313 313 314 316 318 316 316 313 311 312 312 318 326 338 347 347 346 344 344 347 351 351 348 344 343 344 344 345 346 347 348 347 348 347 347 346 346 346 345 345 344 343 342 341 340 339 338 336 335 334 332 331 332 334 337 337 334 334 336 337 337 335 333 336 337 335 335 336 336 334 333 333 332 330 330 330 332 334 334 332 331 330 329 328 330 332 334 333 332 332 332
316 314 315 313 312 315 313 313 314 315 315 315 315 310 315 321 317 325 339 345 347 346 346 344 344 346 348 349 347 344 343 344 344 345 346 347 347 347 347 348 347 346 346 345 345 345 344 343 342 342 340 339 339 337 337 335 334 333 333 334 335 335 335 335 334 336 338 336 333 333 334 335 335 336 336 334 333 331 329 327 327 327 328 330 331 330 329 328 327 328 331 333 334 334 332 332 332
315 313 315 316 314 314 313 314 313 314 315 315 313 308 322 335 328 335 343 345 347 345 346 345 344 344 345 348 348 345 343 344 344 346 346 346 347 347 347 347 347 346 345 345 345 345 344 343 342 342 341 340 339 338 339 338 336 336 335 335 334 333 334 335 334 334 336 336 334 331 331 334 336 335 333 334 334 330 328 328 327 327 327 328 328 328 326 325 326 329 332 333 334 334 333 333 332
314 313 315 316 314 314 312 314 313 314 315 314 312 308 325 342 337 340 341 342 348 344 345 346 343 344 345 347 347 343 343 344 345 345 346 346 347 347 347 347 346 346 346 345 345 345 344 343 342 342 341 341 340 339 339 340 338 337 336 334 332 331 332 334 333 333 335 336 335 332 331 333 335 334 333 335 335 331 327 328 327 325 325 326 326 326 324 325 327 331 333 334 334 334 333 333 332
313 315 317 315 313 313 313 314 314 313 314 313 313 309 321 339 341 343 342 343 348 346 345 344 343 344 344 345 344 343 344 344 345 346 345 346 347 347 346 346 346 346 346 345 345 344 343 343 342 342 342 341 341 339 340 340 339 337 338 336 333 333 333 333 334 334 335 337 336 334 335 336 336 336 336 336 335 332 329 329 329 325 322 323 324 323 323 325 328 332 333 334 334 334 334 332 332
315 318 316 314 313 314 313 316 313 311 314 313 313 310 314 334 345 342 344 346 346 346 345 343 343 343 343 343 342 343 344 343 344 346 346 346 346 346 345 345 346 345 346 346 345 344 343 343 341 342 343 342 342 341 341 341 340 339 339 339 337 337 335 335 337 336 336 338 337 336 338 338 339 339 338 338 335 333 331 330 331 329 323 320 321 322 322 326 330 332 334 334 334 333 333 332 331
315 316 315 314 314 313 312 314 312 311 314 312 313 310 310 328 341 338 343 348 346 347 347 344 344 343 343 343 343 344 343 343 344 345 345 345 345 345 345 345 345 346 345 345 346 344 343 343 341 342 343 343 343 343 342 342 340 340 340 339 338 338 337 336 338 338 338 338 337 337 338 337 338 339 339 338 336 334 331 330 331 331 328 320 318 321 323 327 331 333 334 334 334 334 333 332 332
314 314 315 316 314 313 312 312 312 312 311 312 313 311 310 318 325 333 344 347 346 347 347 345 347 345 343 343 342 343 343 343 344 344 344 344 343 344 345 344 344 345 345 344 344 343 343 343 342 342 343 342 343 342 342 342 341 341 340 340 339 338 338 338 339 340 340 339 338 337 337 336 336 337 337 337 336 334 332 332 332 332 331 324 319 323 325 327 331 333 334 334 333 333 333 333 333
314 313 316 315 311 313 314 312 313 311 310 312 311 311 311 312 319 334 345 344 345 346 344 343 347 345 342 342 342 343 344 343 344 344 344 343 342 343 345 344 344 345 345 344 343 344 343 343 343 342 343 342 342 341 341 342 341 342 341 340 339 338 339 338 339 340 340 339 339 338 337 336 335 335 336 336 337 336 334 333 333 334 334 329 323 324 326 329 331 333 334 334 334 333 333 333 333
314 315 315 314 311 314 315 313 312 310 310 310 312 312 310 314 325 339 342 335 335 337 336 339 343 342 341 341 342 343 343 343 343 344 344 343 342 343 345 343 343 343 343 344 343 344 343 343 343 342 343 343 341 340 341 342 341 342 342 341 340 339 339 338 337 339 340 340 339 338 337 337 335 335 336 336 336 337 336 334 333 333 333 331 326 325 326 329 331 333 333 334 334 334 333 333 333
315 314 314 314 312 314 315 313 312 310 310 310 312 310 309 315 327 338 337 328 331 335 333 338 342 341 342 342 342 343 342 343 343 343 343 343 342 342 344 343 343 342 342 344 343 344 343 342 343 342 343 343 342 342 342 342 342 342 342 340 339 338 339 338 337 337 340 340 340 339 338 337 336 335 336 337 336 335 336 335 333 332 331 331 329 327 326 329 331 332 333 333 333 333 333 333 332
313 314 313 313 312 313 313 312 311 309 310 310 310 309 311 313 320 332 334 330 338 342 339 341 343 342 342 341 342 342 342 342 342 343 343 343 342 341 342 342 343 342 341 343 342 342 343 343 343 342 342 343 343 343 343 343 343 342 342 339 338 338 338 338 336 336 339 340 340 339 339 338 336 335 336 336 336 335 335 335 333 332 332 331 331 329 328 329 331 332 332 332 333 332 332 332 332
313 314 313 312 312 312 312 310 310 309 308 309 309 309 312 310 315 328 331 338 343 343 342 342 341 341 341 341 341 342 342 342 343 342 343 342 341 341 341 341 342 343 341 342 342 343 343 343 342 341 342 343 344 344 343 343 343 342 342 340 339 339 338 338 337 336 339 339 339 339 339 338 337 336 336 335 335 335 335 335 334 334 332 331 331 331 330 330 331 332 332 333 333 333 332 332 332
313 314 313 312 313 312 312 311 310 310 308 308 309 310 311 308 314 324 329 340 345 341 343 342 340 341 341 341 341 341 341 342 343 342 342 341 340 341 340 340 341 342 342 342 343 344 344 343 342 342 342 343 343 342 342 342 342 342 341 340 340 340 338 339 338 336 337 338 339 339 339 338 337 336 336 335 334 335 335 334 335 335 333 332 331 331 330 330 332 333 334 334 333 333 333 333 334
312 313 313 313 314 312 311 311 310 309 308 310 310 311 310 307 312 318 330 341 345 342 343 341 341 342 341 342 341 342 342 342 342 342 341 340 340 340 339 340 340 340 341 341 342 342 342 341 342 343 342 342 342 341 342 342 342 341 340 340 340 340 339 339 338 335 335 337 339 339 339 339 337 336 335 335 335 335 335 334 335 335 333 333 331 331 331 330 331 332 333 333 332 331 332 333 334
312 312 312 313 311 310 310 310 310 309 309 310 310 312 310 309 309 313 335 343 344 342 343 341 342 342 341 342 341 341 342 342 342 341 341 340 339 340 339 339 339 340 340 340 340 340 340 342 342 343 342 342 343 342 342 341 341 341 339 340 340 339 340 339 338 336 335 336 337 339 339 338 337 334 334 335 334 334 334 334 334 335 334 333 332 331 331 329 329 330 332 331 331 331 331 332 334
311 311 312 313 310 311 311 310 310 309 310 310 310 312 310 312 309 320 339 345 342 343 343 342 342 341 341 342 341 341 341 342 342 341 341 340 339 339 339 340 339 339 339 339 339 338 339 341 342 342 341 341 342 342 342 340 340 340 339 338 339 339 339 338 338 337 336 336 338 339 339 338 336 334 334 334 334 332 332 333 334 335 335 334 333 332 331 330 329 329 330 330 331 331 331 332 334
309 309 311 313 312 313 312 309 308 309 310 310 311 310 310 314 309 321 342 344 342 344 343 343 342 342 342 342 342 341 341 342 341 341 341 340 340 339 339 339 339 338 338 338 339 338 338 339 339 339 339 339 339 340 340 339 339 341 340 338 338 339 338 337 338 337 337 337 338 338 339 337 336 335 334 334 334 333 332 332 333 334 335 335 334 333 332 331 330 330 330 330 331 331 332 333 333
310 309 310 311 311 312 311 309 308 310 310 309 312 310 310 316 309 321 343 345 343 346 344 345 344 342 342 342 342 341 341 342 341 341 340 340 340 340 340 339 339 338 337 338 338 338 338 337 337 337 337 338 339 339 339 339 338 339 340 338 337 337 335 337 337 336 336 336 337 338 338 337 336 335 335 334 335 334 334 333 332 333 334 334 333 334 334 332 331 330 330 331 331 332 333 332 333
309 310 311 309 309 311 311 311 310 310 309 308 311 310 310 315 309 319 341 345 344 345 345 345 344 343 343 342 343 342 342 342 342 341 341 340 340 340 340 339 339 338 337 338 337 337 337 337 337 337 337 338 339 338 338 339 339 339 338 337 337 335 334 336 337 336 336 336 337 336 335 335 336 336 336 336 336 335 335 335 333 332 332 332 331 333 334 333 332 331 330 330 331 332 333 332 333
309 310 311 309 309 310 310 311 309 309 310 309 311 310 311 314 308 317 339 346 344 344 345 345 345 344 343 342 342 343 343 342 342 341 341 341 340 340 340 340 339 339 338 338 337 337 337 337 337 337 337 337 338 336 336 337 338 337 336 336 337 336 334 336 336 336 336 336 335 333 332 333 335 335 336 336 337 336 336 336 335 334 333 332 332 332 333 334 333 331 331 331 332 332 332 332 333
310 310 311 309 309 310 308 310 308 308 310 310 310 312 312 314 309 318 338 346 344 344 345 345 344 344 343 342 342 342 344 343 342 342 342 342 341 341 340 340 339 338 339 338 338 338 337 337 337 337 337 338 337 336 335 336 336 336 336 335 336 335 334 335 335 336 336 335 333 332 333 334 334 335 334 334 335 336 336 336 336 336 334 333 333 332 332 333 332 332 332 332 333 332 332 332 333
311 311 311 310 309 309 309 310 309 309 311 311 311 312 311 313 310 318 336 345 345 346 345 344 344 343 343 342 342 342 343 343 342 342 342 342 341 340 340 340 339 339 339 338 338 338 338 337 337 337 337 338 338 337 336 337 336 336 336 335 335 334 335 335 335 335 335 334 333 333 334 334 334 334 334 333 333 333 334 334 335 336 335 335 334 333 332 332 331 332 332 332 333 332 332 333 333
311 311 311 311 309 309 310 310 310 310 312 312 312 312 312 314 311 317 334 344 345 345 344 344 344 343 342 342 342 342 343 342 340 341 342 341 340 340 340 340 339 339 338 338 338 338 338 338 337 337 336 336 337 337 337 337 336 335 334 333 334 334 334 334 333 332 333 334 333 333 334 334 335 334 334 334 333 333 332 333 334 334 334 335 335 334 333 332 331 332 332 332 333 332 332 333 333
311 310 310 310 309 310 310 311 310 309 312 314 313 313 312 312 314 317 327 341 345 345 344 344 344 343 342 342 342 342 342 340 339 340 340 339 339 339 339 339 339 339 339 338 338 338 338 338 337 337 336 336 336 337 337 336 335 334 333 332 333 333 332 332 332 331 332 332 332 332 333 334 334 334 334 335 334 333 332 332 334 334 333 335 335 334 333 332 332 332 333 333 333 333 333 333 333
311 310 310 310 309 310 310 311 310 310 312 313 311 312 312 312 316 318 326 339 343 342 345 345 343 343 342 341 342 341 340 338 340 340 338 339 339 339 339 338 339 338 338 338 338 338 338 337 338 337 336 336 335 335 336 336 336 335 334 333 333 332 332 331 331 331 331 333 332 331 331 333 334 334 334 334 334 333 332 331 332 332 332 334 334 333 333 333 332 332 333 333 332 333 333 333 332
312 310 310 310 309 310 310 311 311 310 311 312 310 313 316 316 318 320 324 331 332 332 338 341 342 343 342 341 341 341 339 339 340 339 339 339 338 338 338 338 338 337 337 337 337 337 337 337 337 337 337 336 335 334 334 334 335 335 334 333 333 333 332 332 331 332 333 334 334 333 333 334 334 334 335 335 334 333 333 333 332 332 332 333 333 333 333 332 332 332 333 332 332 332 332 332 332
313 312 311 310 309 309 310 311 312 311 311 313 313 317 321 320 321 322 323 323 325 327 332 335 337 340 341 339 339 340 340 340 340 339 338 338 338 337 337 337 337 337 337 337 336 336 337 338 337 336 337 336 336 335 334 334 335 335 334 333 333 333 333 333 333 333 333 333 333 334 333 333 334 334 334 334 334 333 333 333 333 333 334 334 333 333 332 332 332 332 332 331 332 332 332 332 332
315 315 311 310 310 310 311 311 312 313 312 314 316 317 320 322 325 326 324 325 328 330 330 331 331 332 335 337 338 338 339 339 339 339 338 337 337 336 336 336 336 336 337 337 337 336 336 337 336 336 336 335 335 335 335 334 334 334 333 332 333 333 333 333 334 334 333 333 333 333 333 333 333 334 333 334 334 333 333 332 332 333 334 333 333 333 333 332 332 331 331 330 331 332 332 331 332
313 314 313 311 311 311 311 311 313 313 312 312 313 313 317 323 327 328 326 328 331 330 330 331 331 329 329 334 338 337 337 338 337 337 337 336 336 335 335 335 335 335 335 336 337 335 335 335 334 335 335 334 335 335 335 334 334 333 332 333 333 333 333 334 334 333 334 333 333 333 333 333 333 333 333 332 333 333 332 333 332 332 333 333 332 333 333 333 333 332 331 330 331 331 332 331 331
311 314 313 310 311 312 311 312 312 312 312 312 311 312 316 321 326 328 327 328 331 331 331 331 330 329 329 332 337 337 337 337 336 335 334 335 335 335 335 334 334 333 333 334 334 334 335 335 335 334 334 334 334 335 335 335 335 334 333 333 334 333 333 334 334 333 334 334 334 334 334 333 333 333 332 332 332 332 332 332 332 332 332 333 332 332 333 333 332 331 330 330 331 331 331 331 331
312 315 314 309 310 311 312 312 311 312 314 313 312 313 316 318 324 328 327 329 330 331 331 330 330 330 331 334 336 337 337 336 335 334 333 334 335 335 335 334 333 333 332 333 333 334 334 335 335 335 334 334 333 334 335 335 335 335 334 333 333 334 333 333 333 333 333 333 333 334 334 333 332 332 332 332 331 331 331 332 331 331 332 332 332 332 333 332 331 330 330 330 330 330 330 331 331
313 314 311 309 311 311 311 311 312 315 314 311 312 314 315 319 324 328 328 329 331 332 330 330 330 330 333 334 334 335 335 335 335 333 334 334 333 332 332 332 332 331 332 332 332 333 333 334 334 334 334 333 333 334 335 335 335 335 333 333 332 332 332 332 332 332 332 332 333 333 333 332 332 332 332 331 331 332 332 332 331 332 332 332 332 333 333 332 331 331 331 330 330 330 330 330 331
311 310 310 310 311 312 312 312 313 316 314 311 313 313 314 319 325 329 330 331 332 332 330 329 330 330 331 331 330 330 330 330 329 329 330 330 328 328 328 329 329 328 329 330 330 331 332 333 334 334 334 334 333 334 334 335 334 333 333 332 332 332 332 332 332 332 332 332 332 333 332 332 332 332 332 331 331 332 331 332 331 331 331 332 331 332 334 333 331 331 331 330 329 330 330 330 331
309 309 311 311 312 313 314 314 314 314 313 312 312 314 314 315 323 332 333 333 333 332 331 331 330 330 331 329 328 328 327 326 325 325 326 326 326 326 326 327 326 327 327 328 328 329 329 331 332 333 334 333 334 334 334 334 333 333 332 332 332 332 332 331 331 331 331 332 332 332 332 331 331 332 332 331 331 331 331 331 331 330 331 332 331 332 334 333 331 331 331 330 330 330 330 330 331
310 312 312 311 313 314 314 314 313 313 313 313 312 313 314 317 326 332 333 333 332 332 333 332 331 331 330 328 327 326 325 325 325 325 325 326 326 326 326 326 325 326 327 326 327 327 328 328 330 331 332 332 333 333 333 333 332 332 331 331 331 331 332 331 331 331 331 332 331 331 331 331 331 332 331 331 331 331 331 330 329 330 331 331 331 332 333 332 330 331 331 330 329 329 329 330 331
310 312 312 312 314 315 315 314 313 314 313 312 312 312 317 327 331 332 333 333 333 332 332 331 332 331 329 328 326 325 325 325 325 325 325 326 326 326 326 326 325 326 326 326 326 327 327 328 328 328 329 330 330 331 330 330 330 330 329 329 329 330 330 330 330 331 331 331 330 329 330 331 331 331 331 331 331 330 330 329 329 330 331 331 331 331 331 330 330 331 331 331 330 329 329 329 331
310 312 312 312 314 316 316 313 313 315 313 313 313 314 323 332 332 331 332 333 332 331 331 331 330 330 329 328 327 327 326 326 326 326 326 326 327 326 326 326 326 326 326 326 327 326 327 327 327 328 328 328 328 329 329 329 329 329 328 328 327 328 329 329 330 330 330 331 330 329 330 331 331 330 330 330 330 330 330 329 330 331 331 331 331 330 330 330 330 331 331 331 331 331 330 331 332
310 311 311 312 314 315 315 314 314 315 314 315 316 318 326 332 331 331 332 331 331 330 330 330 329 328 329 328 328 328 327 326 326 325 326 326 326 326 325 325 325 325 325 326 326 326 327 327 327 327 327 327 328 328 328 329 328 328 328 328 327 327 328 329 329 329 330 330 329 329 330 331 331 331 330 330 330 330 329 329 331 331 332 333 332 331 331 331 331 331 332 331 331 331 331 331 331
310 309 311 312 314 316 314 313 315 317 314 316 321 324 328 330 330 329 330 331 330 329 329 329 328 327 327 328 327 326 326 325 324 324 324 324 324 324 323 323 322 322 323 323 324 325 325 326 327 327 327 327 327 328 329 329 329 328 328 328 328 327 327 328 328 329 329 329 328 328 330 331 330 330 330 330 330 330 329 330 331 332 333 333 332 332 332 331 331 331 331 331 331 331 330 331 330
311 310 311 311 311 316 316 311 312 316 314 316 321 328 330 329 331 330 328 330 330 329 328 328 327 327 326 326 325 324 323 323 321 321 322 322 322 321 321 321 320 320 321 322 323 324 324 326 326 326 326 326 327 327 328 328 328 328 328 328 328 327 328 328 328 328 329 328 328 328 329 330 330 330 329 329 330 330 330 331 332 332 333 332 332 332 332 332 331 331 331 331 331 331 330 330 330
311 311 311 310 310 313 316 313 312 313 316 320 323 330 332 330 333 332 329 330 330 329 328 327 327 326 326 325 324 322 321 320 319 319 319 319 320 319 319 319 318 319 319 320 321 322 323 324 325 326 326 326 327 327 327 327 327 327 327 328 328 328 328 328 328 328 328 328 328 328 329 330 330 330 329 329 330 330 331 332 332 333 333 332 332 332 332 332 331 331 331 330 330 331 331 331 330
310 312 311 311 313 313 312 314 314 312 318 324 326 329 330 330 332 332 331 330 331 330 328 327 327 326 325 323 321 320 319 318 318 317 317 318 318 318 318 317 317 317 317 318 319 320 321 322 323 324 324 325 326 326 326 327 327 327 327 327 327 328 328 328 328 328 328 328 328 328 328 329 329 329 329 329 330 331 332 332 332 332 332 332 332 332 332 332 332 332 331 330 330 331 331 331 331
310 311 310 311 315 313 312 313 314 314 318 323 330 330 328 328 329 330 331 330 330 330 328 328 327 324 323 321 320 318 317 316 316 316 316 316 317 317 317 316 316 316 316 316 317 318 319 320 321 321 322 323 324 324 325 326 327 327 327 327 327 327 328 329 329 329 328 328 328 328 328 328 328 329 329 329 331 332 333 333 332 332 332 332 332 331 331 332 332 331 331 331 331 331 331 331 331
310 312 311 312 313 311 312 312 311 313 318 322 328 329 326 324 325 328 330 330 330 329 328 327 325 322 320 318 317 316 315 315 314 314 314 315 316 315 315 315 315 315 315 315 316 317 317 318 318 319 320 321 322 322 323 324 326 327 327 327 328 328 327 328 329 329 329 328 328 328 329 328 328 329 330 330 331 332 332 333 332 332 332 331 331 332 332 331 330 330 331 331 331 332 332 332 330
312 313 313 313 314 311 312 313 310 312 317 321 325 326 324 322 324 329 330 329 329 327 326 324 321 319 317 315 314 313 313 312 311 311 312 313 313 314 314 314 314 314 314 314 314 315 316 316 317 317 318 319 320 320 322 322 324 325 326 327 327 327 327 327 328 329 329 329 329 329 329 329 329 330 331 331 332 332 332 332 332 332 332 332 332 332 332 331 331 331 331 330 330 330 331 331 331
Wind_Speed
4 5 4 3 3 1 2 2 1 1 0 1 1 1 2 3 2 2 3 3 3 1 1 2 1 2 1 2 3 2 4 3 2 1 1 3 2 10 11 13 20 23 22 21 22 22 22 26 26 25 24 23 25 25 26 26 26 26 25 25 24 23 21 19 18 18 19 20 21 22 21 21 22 24 25 25 24 24 23 22 21 20 20 21 22 22 22 23 23 23 22 22 21 20 18 18 18
5 5 4 3 4 1 1 1 1 1 1 2 2 2 1 1 0 3 4 4 2 2 2 2 2 1 2 1 4 4 5 6 5 3 3 4 9 11 10 15 20 21 21 20 22 22 21 24 25 24 24 23 24 25 25 25 25 25 24 22 22 20 18 18 18 19 19 20 21 20 21 22 22 23 24 25 24 24 23 21 20 20 20 20 22 22 22 22 22 22 22 21 19 18 17 16 16
5 5 3 2 3 2 1 0 1 1 2 3 2 3 1 3 3 2 2 3 2 1 2 4 1 1 3 3 2 1 4 6 6 5 3 6 10 10 11 16 19 21 19 19 21 20 19 22 25 25 23 23 24 24 25 25 25 23 22 20 19 18 18 18 17 19 19 19 20 20 21 22 22 22 23 25 24 23 22 21 20 20 19 19 20 20 21 21 21 21 20 19 18 17 16 15 13
5 5 3 1 1 1 1 0 1 2 2 2 1 3 2 3 4 2 1 5 5 3 3 4 1 2 4 1 3 2 5 5 6 5 4 4 6 11 13 16 19 19 17 18 20 19 18 21 25 25 24 24 24 24 24 24 23 22 20 20 19 19 19 18 17 19 18 19 19 19 19 20 21 20 22 24 22 21 20 20 21 20 20 19 19 19 19 20 20 19 19 18 18 16 15 14 12
5 5 4 2 1 0 1 1 1 2 3 2 1 1 3 3 3 2 3 6 7 5 4 2 1 2 2 3 3 2 3 3 5 6 4 4 7 13 14 16 19 18 17 17 18 17 17 21 24 24 24 24 24 24 23 23 22 21 20 20 19 19 19 18 18 18 18 19 18 18 19 19 19 19 23 23 21 20 19 19 21 21 20 19 19 18 18 18 17 18 19 18 17 16 15 14 13
5 4 5 3 1 1 1 1 2 3 3 3 2 2 4 3 1 3 5 5 4 3 4 3 1 1 1 3 3 3 4 1 3 5 4 5 11 14 14 15 17 18 17 17 17 16 18 21 23 24 24 23 23 23 22 22 22 20 19 20 19 19 19 18 19 18 17 19 19 19 18 18 18 20 22 22 22 19 18 19 20 21 19 18 17 17 17 16 16 18 18 17 16 17 16 16 15
4 2 3 2 2 1 2 2 2 3 2 4 4 2 4 2 3 5 6 5 1 2 3 2 2 2 2 2 1 4 5 5 2 2 3 7 13 15 15 16 17 18 17 17 17 16 19 21 23 24 23 23 23 23 22 21 21 20 19 20 19 20 19 18 19 19 18 19 19 19 19 18 17 19 19 20 22 18 17 18 18 19 18 17 15 15 16 15 16 18 17 16 16 17 17 16 15
4 1 1 0 1 1 1 1 2 2 2 3 5 6 3 3 4 6 6 2 1 1 3 3 2 2 2 1 1 4 5 7 4 3 5 10 15 15 15 16 18 19 17 17 17 18 19 21 23 23 22 22 23 23 22 21 21 20 20 20 19 20 20 18 19 19 18 18 18 18 19 17 16 17 17 18 19 17 16 16 16 16 16 16 15 15 15 16 18 17 15 16 16 17 17 16 15
4 2 1 1 1 0 0 1 2 2 4 5 6 9 7 5 6 7 6 3 2 2 4 4 1 2 4 2 2 4 4 7 6 6 9 12 15 16 15 17 18 18 17 17 17 18 19 20 22 21 20 21 22 22 21 21 21 20 20 20 18 19 20 19 19 19 19 19 19 19 17 15 16 16 16 16 16 14 14 14 14 14 15 15 14 15 15 17 17 15 14 15 16 16 16 15 14
2 2 1 1 1 1 1 1 2 2 5 5 7 10 8 6 8 8 7 4 3 5 5 3 1 0 4 3 2 3 3 5 7 10 10 12 15 15 16 16 17 18 17 17 18 18 18 19 20 19 19 20 21 21 20 20 20 19 19 20 18 19 21 20 20 19 19 20 20 20 17 15 16 15 15 16 15 14 14 14 14 13 13 14 14 14 14 16 15 14 13 13 15 15 16 15 14
1 2 0 1 2 2 2 3 4 4 5 5 7 8 6 6 6 7 6 3 2 5 5 2 2 3 4 2 2 3 4 5 8 11 10 12 15 15 16 16 15 16 17 18 18 18 18 18 18 17 18 19 20 20 20 19 19 19 20 20 19 18 20 21 21 19 19 20 20 20 18 15 15 14 14 16 15 14 14 13 13 13 12 12 12 12 14 14 13 12 12 12 14 15 16 15 15
1 1 1 2 1 2 1 3 4 6 6 5 5 2 1 3 5 5 7 5 4 6 4 3 1 3 3 1 2 4 6 7 10 11 11 12 15 15 16 16 15 16 16 18 18 17 18 18 17 16 17 18 19 19 19 19 19 19 20 20 19 18 19 21 21 19 19 19 20 19 17 16 15 15 14 14 14 14 14 13 13 12 12 12 11 12 13 12 12 11 11 11 12 14 15 15 15
1 2 2 2 1 1 1 2 3 5 4 2 3 3 2 3 3 4 8 7 6 7 4 2 2 1 1 2 3 5 6 8 10 11 12 13 15 15 15 15 15 15 16 17 17 17 18 18 17 15 16 17 17 18 19 18 18 19 19 19 19 18 19 20 20 19 18 18 18 18 17 17 16 15 14 12 11 12 12 13 14 13 13 13 12 12 12 11 11 11 11 11 11 13 15 15 15
1 2 2 2 0 0 1 2 2 2 2 1 2 5 4 0 1 3 8 9 6 3 3 3 2 0 1 2 2 4 5 8 11 12 13 14 14 15 15 15 14 15 16 16 17 18 18 18 17 16 16 16 16 17 17 17 17 18 18 18 18 18 18 18 18 18 17 16 16 16 16 16 15 14 13 11 10 10 11 12 14 15 15 15 14 13 12 11 11 11 11 10 11 12 14 15 15
1 1 0 2 1 1 3 2 1 1 0 1 3 5 3 2 1 2 3 6 5 1 2 4 3 1 1 1 1 5 9 11 11 12 13 14 14 14 14 14 14 15 16 16 17 18 18 18 17 16 16 16 15 16 16 15 16 17 17 17 17 17 18 17 17 17 17 15 14 14 16 16 15 13 12 12 11 10 11 11 12 13 14 15 15 14 13 12 12 12 11 10 10 11 14 15 14
1 1 1 1 2 1 2 2 1 1 1 0 2 6 2 3 2 1 1 1 6 2 0 3 4 2 2 2 3 9 15 14 13 13 14 14 14 14 14 14 15 15 15 16 18 18 17 17 17 16 16 16 16 16 16 14 15 16 16 16 16 17 17 16 16 17 17 15 14 14 15 15 14 13 12 13 12 10 11 11 11 13 13 14 15 15 14 14 13 12 11 11 11 12 14 15 14
1 1 1 1 2 3 3 4 3 0 2 3 3 7 4 2 2 1 1 3 7 4 2 3 4 3 3 3 7 15 17 16 15 15 15 14 14 14 13 13 15 16 15 15 18 19 18 17 17 16 16 16 16 17 16 15 15 16 15 15 15 16 16 15 16 17 17 15 14 14 14 13 13 13 12 13 12 10 11 12 11 12 14 14 15 16 16 15 14 13 12 12 12 13 14 15 13
2 2 2 3 3 3 4 4 3 0 3 5 7 7 5 1 3 2 3 6 6 4 3 3 4 5 5 7 12 16 17 17 17 16 15 13 13 13 13 13 14 15 15 16 17 18 18 16 17 17 16 16 17 16 16 15 16 16 15 14 15 15 15 15 15 16 15 14 14 14 13 12 12 13 12 12 12 11 11 12 10 10 13 15 16 17 17 15 14 13 13 13 14 14 14 15 13
2 2 2 5 4 2 2 3 2 2 4 7 9 5 3 1 3 0 1 4 4 5 3 1 2 5 7 10 14 15 16 17 16 15 15 13 12 13 14 13 13 14 15 17 17 18 17 15 16 16 16 17 17 16 15 15 16 15 14 14 14 14 14 14 14 14 13 13 13 13 12 12 13 13 13 12 12 12 12 12 11 9 11 15 17 17 17 16 14 13 13 14 14 15 15 15 14
2 2 5 5 3 3 3 3 5 4 4 8 8 5 3 3 1 1 1 5 5 5 3 2 3 6 9 10 13 15 15 16 15 15 15 14 13 12 14 14 14 14 14 16 17 18 16 15 17 16 16 18 18 17 16 16 16 14 14 14 14 14 14 13 13 14 13 13 13 13 12 12 13 13 13 12 11 12 13 13 12 10 10 13 18 19 17 16 15 14 13 14 15 15 15 15 14
2 3 5 2 2 4 4 4 6 4 2 4 5 5 5 4 2 1 4 6 3 5 5 3 3 9 13 11 13 14 15 15 15 15 15 14 14 13 12 13 14 13 14 15 16 17 16 15 16 17 17 17 18 18 17 17 16 14 13 14 14 15 15 14 14 15 14 14 14 13 12 12 12 12 12 12 11 10 12 13 11 10 10 12 18 19 18 16 16 15 14 15 15 15 15 14 13
3 4 4 2 2 4 4 2 3 1 1 2 4 5 4 3 3 4 6 4 2 2 4 2 3 11 14 12 13 13 13 15 15 15 15 14 15 14 13 13 13 13 14 15 15 16 15 15 15 16 17 16 17 17 16 16 15 14 14 14 14 14 16 15 15 16 15 15 14 13 13 12 12 11 12 12 11 10 10 12 12 12 12 13 16 17 18 17 16 15 15 15 15 15 15 14 12
4 4 3 5 5 6 4 1 2 1 1 4 3 3 2 2 3 3 4 1 2 5 5 2 8 12 14 13 13 12 13 13 14 15 15 16 16 16 14 14 14 15 15 14 15 16 15 14 14 16 17 16 16 16 15 16 16 15 15 16 15 15 16 15 15 17 16 16 15 15 14 13 13 13 13 13 12 11 10 11 14 14 14 14 14 15 17 17 16 15 15 15 15 15 15 13 12
4 4 3 5 5 7 5 3 3 2 4 6 3 2 3 3 1 1 3 3 4 4 2 9 12 13 14 13 12 12 12 13 15 16 15 16 16 16 15 15 14 15 15 13 14 16 16 14 14 17 19 18 16 15 16 16 17 16 15 16 16 16 16 15 16 18 17 16 16 16 16 14 14 13 13 14 13 13 11 12 14 15 15 15 14 15 16 17 16 15 15 16 16 16 15 13 12
6 7 3 3 4 5 5 5 5 3 5 5 2 2 4 4 1 3 4 4 3 2 8 11 12 13 12 11 12 11 12 13 15 15 14 15 16 15 15 16 14 14 14 14 15 16 17 16 16 17 17 16 14 15 16 16 16 16 15 15 16 15 15 16 16 17 17 18 17 17 16 16 14 13 13 13 14 14 13 14 13 13 16 16 16 15 16 17 16 15 15 16 16 15 15 14 12
7 9 4 4 5 3 4 5 3 2 3 3 3 2 2 2 1 3 3 2 2 5 8 10 11 12 11 10 10 10 10 12 13 13 13 14 16 16 16 16 15 15 16 15 15 15 15 16 15 14 14 14 13 15 16 16 16 15 15 15 15 15 15 16 16 17 19 20 19 17 17 17 15 13 13 13 14 14 14 15 13 13 15 16 17 16 16 16 16 16 15 15 14 14 14 13 12
5 9 6 7 6 4 3 5 4 3 3 6 6 2 2 1 1 3 1 1 4 6 7 8 9 9 10 9 8 9 10 11 12 12 12 13 14 15 15 16 16 17 16 15 15 15 13 14 15 13 13 15 15 16 16 14 14 15 15 15 14 14 15 17 17 19 21 21 20 19 17 17 16 15 14 14 14 14 13 15 15 15 14 15 18 17 17 16 16 16 15 14 13 12 13 12 12
4 6 4 6 5 4 5 6 4 3 2 4 6 3 3 2 2 2 2 4 5 6 7 7 7 8 8 9 8 8 8 10 12 11 12 13 13 13 15 15 15 15 14 14 15 15 14 13 13 14 14 15 15 15 15 13 13 15 15 15 14 14 16 17 18 19 20 20 20 20 19 17 17 16 14 14 15 15 14 14 16 15 14 15 17 18 17 16 15 15 15 13 12 11 12 13 13
3 5 3 4 2 4 6 4 2 2 2 3 6 5 4 4 3 1 3 7 6 5 6 6 6 6 7 8 7 7 8 10 11 11 12 12 11 12 13 11 10 11 11 11 12 12 12 11 10 12 14 14 12 12 14 14 13 15 15 15 15 15 16 15 17 19 19 20 19 20 20 18 18 17 15 14 15 16 15 14 15 16 15 15 16 17 17 16 14 14 14 13 13 12 12 13 12
3 3 3 2 1 4 2 1 1 3 2 3 5 4 4 4 2 4 7 9 8 6 6 6 5 5 6 7 6 6 8 9 9 10 10 9 9 9 9 8 7 8 8 9 10 10 10 12 13 13 13 14 14 14 15 14 14 14 14 14 16 16 16 16 17 19 19 20 20 20 21 20 19 17 16 15 15 16 16 15 14 15 16 15 16 17 17 15 13 12 13 14 14 13 12 11 10
3 4 1 1 2 3 0 2 2 4 1 1 4 4 2 2 1 6 10 10 9 7 7 6 5 5 5 6 6 6 7 7 8 8 8 7 6 5 6 6 6 7 8 9 10 9 9 12 13 13 12 13 15 16 15 14 14 16 14 14 16 15 16 16 16 18 19 19 20 21 21 20 17 16 16 15 15 17 16 15 15 15 15 16 16 16 15 14 13 12 12 14 15 13 10 9 8
2 3 3 1 3 2 2 1 3 3 2 1 4 3 2 2 0 4 8 9 6 3 5 5 5 5 5 5 5 5 5 6 6 6 6 6 5 5 6 7 8 10 11 10 9 8 8 10 11 11 11 13 15 15 14 13 14 16 15 15 16 13 14 16 16 17 17 18 19 16 16 16 14 14 15 16 17 17 17 16 15 15 16 16 16 15 15 13 13 12 11 13 15 12 10 9 7
1 2 3 3 4 2 2 1 2 2 2 1 3 1 1 1 1 3 7 8 5 2 4 5 5 5 4 4 5 4 4 5 4 4 5 6 5 4 5 6 8 10 10 9 8 7 7 8 9 10 10 12 14 13 13 14 14 15 14 15 16 13 13 15 16 17 16 15 13 9 11 15 15 14 15 17 19 19 18 17 16 16 16 15 14 15 16 14 13 12 11 12 14 13 11 9 8
2 1 2 2 3 2 1 1 1 1 2 4 3 2 2 1 3 3 7 8 7 5 5 5 5 3 3 3 4 3 4 4 3 3 5 5 4 3 3 4 6 7 6 6 6 6 6 6 7 8 9 10 13 13 13 14 15 16 16 16 17 16 17 16 15 16 13 11 11 10 12 15 17 17 15 16 18 19 18 16 16 17 16 16 14 14 15 15 14 13 11 11 11 12 12 10 8
5 5 4 2 2 2 1 1 1 1 1 4 5 5 6 4 2 3 6 7 8 6 4 4 5 4 3 4 4 2 4 4 5 4 4 4 4 4 3 3 3 4 4 4 4 5 5 5 5 7 9 11 13 14 15 16 16 17 17 18 20 20 19 16 14 13 10 10 12 12 12 13 16 18 17 16 15 18 18 16 17 17 16 17 15 14 15 14 15 14 13 12 9 9 10 9 9
7 6 5 4 4 2 1 1 1 2 1 5 7 7 7 6 1 4 4 6 7 7 5 4 5 4 4 5 2 3 4 5 6 5 4 4 5 4 3 3 2 2 2 3 4 4 5 5 5 6 8 10 13 15 16 16 15 15 14 15 19 20 17 13 12 12 10 11 11 10 11 12 12 14 16 16 15 16 17 17 19 17 16 17 16 16 17 16 17 15 13 12 11 9 8 8 9
6 5 4 4 3 3 1 1 2 2 1 3 4 6 5 2 4 6 2 4 7 8 7 7 6 4 4 5 2 3 4 5 6 7 7 6 6 5 4 3 3 3 2 3 3 4 5 5 6 7 9 10 13 17 17 15 13 14 13 13 17 19 16 12 12 13 12 11 11 10 11 12 10 11 12 14 15 16 15 16 18 17 16 16 15 17 19 17 18 17 14 12 12 11 10 10 11
5 5 4 3 3 3 1 0 2 1 2 0 1 3 1 5 6 7 3 4 6 6 8 9 8 6 4 4 2 2 3 4 6 8 9 8 7 6 5 4 4 3 2 3 4 4 4 5 6 8 10 11 13 15 15 15 17 17 14 11 13 15 16 15 14 15 14 12 11 11 13 12 11 11 12 12 14 15 14 13 17 18 18 16 15 18 20 17 17 17 16 14 12 12 11 11 14
3 3 3 3 3 2 1 1 2 1 1 1 2 4 4 6 5 7 6 1 1 2 5 7 7 7 5 3 2 1 4 4 5 8 8 9 9 8 7 6 4 2 1 2 3 4 5 7 8 10 12 13 13 12 12 13 15 17 14 11 10 11 13 14 15 14 14 12 11 11 12 13 12 12 13 13 13 15 14 14 15 16 17 17 16 19 20 17 17 16 16 16 14 12 11 13 16
2 2 3 3 2 2 3 2 2 1 1 1 6 7 5 5 3 6 8 3 3 6 3 2 3 3 4 3 1 1 4 5 5 7 8 10 10 8 8 7 5 3 1 2 3 5 7 8 9 11 13 13 13 13 13 13 14 16 14 11 11 10 10 11 12 12 12 12 12 12 13 14 14 13 13 13 14 15 15 15 15 14 16 17 16 19 21 19 19 19 18 18 18 15 11 13 17
1 2 4 3 3 3 2 2 1 0 2 2 7 7 4 5 4 5 6 4 5 8 8 7 7 5 1 3 4 4 4 4 5 7 8 9 9 9 8 7 5 3 1 2 3 6 7 8 9 11 11 11 11 12 12 12 13 12 10 9 10 11 10 10 11 11 12 13 13 13 14 15 15 14 13 13 14 16 15 15 16 15 15 16 16 18 21 19 20 20 19 20 20 17 13 13 16
2 4 6 5 5 4 1 2 0 2 3 3 3 3 3 3 4 5 6 4 6 7 8 9 8 8 5 1 5 6 6 6 7 8 8 9 9 9 7 5 4 2 0 1 3 6 8 8 9 11 12 11 11 10 11 12 13 11 7 8 10 11 12 12 12 12 12 13 12 12 12 14 16 15 14 14 14 16 17 17 18 17 16 17 17 19 20 19 19 17 19 23 22 19 16 14 15
4 4 6 5 4 3 3 3 1 2 2 1 1 2 3 3 2 5 5 3 6 7 9 10 9 8 7 4 4 5 6 7 8 9 8 8 8 7 5 3 3 3 3 4 5 8 9 9 9 11 12 12 11 10 11 12 13 13 10 10 12 13 14 13 10 11 12 12 11 10 10 12 15 15 14 15 15 15 17 19 19 18 18 19 20 21 21 18 17 17 22 26 24 22 19 16 16
3 3 7 8 6 6 6 4 3 2 0 2 0 2 3 4 2 4 4 1 7 9 10 10 9 9 8 7 5 4 6 7 7 8 8 8 7 6 4 2 3 4 4 5 6 8 9 9 9 10 11 12 12 12 12 13 15 15 12 11 12 13 15 13 10 10 12 12 11 10 9 12 15 16 15 16 15 15 16 19 19 19 19 21 22 23 22 17 16 19 24 26 24 22 20 15 16
2 3 6 7 5 6 4 3 3 0 1 4 3 2 3 3 1 3 2 3 7 9 9 9 9 9 9 8 8 7 6 6 7 7 8 8 8 6 4 3 3 3 4 5 7 7 8 8 9 9 10 11 13 13 12 13 14 14 13 13 12 12 12 13 11 10 11 12 12 10 10 12 14 15 14 14 15 15 17 19 20 20 20 22 24 23 21 18 17 21 24 25 23 23 22 18 16
2 6 6 4 3 2 2 2 2 1 3 5 3 1 2 3 1 2 3 4 5 6 7 7 8 8 8 9 9 8 8 7 8 8 9 11 9 8 6 6 6 6 5 7 9 9 9 9 9 10 10 10 12 13 11 11 13 13 13 13 13 12 12 11 11 11 12 12 13 12 11 13 13 13 13 15 16 16 18 19 20 22 22 22 22 21 21 19 17 20 22 23 23 21 20 20 17
7 8 6 5 3 2 1 1 1 3 4 2 2 3 2 3 1 1 2 2 3 4 5 6 8 8 8 8 8 9 9 8 9 9 11 12 11 9 8 8 8 7 7 8 10 10 10 10 9 10 11 11 12 13 12 12 13 13 12 12 13 13 12 12 13 13 13 13 14 14 13 13 14 13 13 15 15 15 17 18 19 21 22 21 19 20 22 18 16 19 20 21 23 21 21 21 17
6 5 4 5 3 1 2 1 1 5 4 1 2 3 2 2 2 1 2 3 4 4 4 6 7 8 8 8 8 9 9 9 9 9 10 11 11 11 11 10 10 9 10 11 11 11 10 9 9 11 11 11 12 13 11 10 11 12 11 11 12 13 12 12 14 15 15 13 14 15 13 12 13 13 13 13 13 14 15 17 18 19 19 19 18 19 20 18 17 19 20 21 22 22 22 20 17
5 4 6 7 4 3 4 3 3 4 2 1 2 3 0 2 2 3 4 5 5 4 5 6 7 9 9 8 8 8 8 9 9 9 9 9 10 11 12 12 11 11 12 12 13 12 10 9 9 10 11 12 13 14 13 13 14 15 14 13 13 13 12 12 14 15 15 14 15 17 15 12 12 13 13 12 12 14 16 17 18 19 19 18 16 17 17 17 19 18 18 19 21 21 21 18 16
7 6 8 8 5 5 5 3 2 2 2 1 3 2 2 3 3 4 4 4 5 6 6 7 9 9 9 9 9 9 9 9 9 9 8 9 10 12 13 12 12 12 12 12 12 12 12 11 10 10 11 12 12 13 14 15 16 18 18 16 14 13 12 12 12 14 15 14 16 18 18 14 14 14 13 14 15 16 18 18 17 17 18 17 15 16 17 17 18 16 14 16 19 19 17 16 15
6 3 4 5 4 4 4 4 3 3 3 2 1 0 2 3 4 5 4 4 6 7 7 9 9 9 9 9 10 10 10 9 8 8 9 10 12 13 13 14 13 13 14 14 13 13 13 12 10 8 9 9 9 10 11 13 14 15 15 13 11 11 11 9 10 13 15 14 16 19 19 16 16 15 14 15 15 17 20 19 18 18 18 17 16 16 17 17 17 15 13 14 16 16 14 14 14
4 1 1 4 3 3 3 1 1 2 3 2 2 1 1 2 3 4 3 4 7 7 8 9 9 9 10 10 10 10 9 8 8 8 9 11 14 14 14 14 14 14 15 15 15 15 14 12 10 8 8 8 9 9 10 10 11 11 11 9 7 8 8 7 8 11 13 15 16 19 19 16 16 15 13 14 14 17 20 18 17 19 20 18 17 16 15 15 14 14 13 14 15 15 14 13 14
4 3 4 2 1 4 5 2 2 1 3 2 2 0 2 2 4 6 5 3 6 7 8 9 9 10 10 9 9 9 8 8 8 8 9 12 14 14 14 14 14 14 15 16 16 15 13 11 10 11 11 12 12 11 10 9 10 10 9 7 4 4 4 5 5 8 12 15 15 17 18 16 14 14 13 14 14 15 18 17 16 18 19 18 15 14 12 12 12 13 12 14 14 15 14 13 13
5 6 6 3 2 2 3 3 2 1 3 2 1 1 3 3 4 8 8 6 6 7 8 9 9 9 9 9 8 9 8 8 8 9 10 11 13 13 14 14 14 14 15 15 15 14 12 11 11 12 12 13 12 11 10 9 9 9 8 7 4 3 3 5 5 6 10 13 12 13 16 16 14 13 13 14 15 16 15 16 15 15 17 16 12 12 12 11 12 13 13 14 13 13 13 13 12
2 6 6 3 2 3 2 2 3 4 3 2 1 1 4 5 3 8 12 10 8 8 7 9 9 9 8 7 8 8 8 7 7 7 8 9 11 12 13 13 13 14 14 15 15 14 14 14 14 14 13 13 12 10 10 10 10 9 8 7 6 6 4 6 8 7 9 11 11 11 14 17 15 13 12 13 15 18 17 16 15 14 14 14 12 14 14 12 13 14 14 14 13 12 12 12 11
2 5 6 1 1 3 2 2 2 4 4 2 2 1 4 5 3 8 13 11 10 9 7 8 9 9 8 7 7 7 6 6 6 7 7 9 11 12 12 12 12 14 17 18 18 18 17 16 17 16 14 14 13 11 11 11 10 9 8 7 6 6 6 7 8 9 11 11 11 11 12 16 17 14 13 14 14 15 17 17 17 15 14 14 14 14 14 14 14 14 14 13 12 12 12 11 12
4 6 6 2 1 2 2 2 2 2 4 3 4 2 4 2 2 7 12 11 10 10 8 8 9 9 8 7 6 6 5 5 6 6 7 8 10 11 12 12 12 15 18 20 20 20 18 16 16 15 13 14 14 13 12 11 10 9 8 8 6 4 4 5 6 8 11 12 12 12 13 14 17 16 14 15 15 13 15 17 18 16 16 15 15 14 13 14 14 14 12 11 11 12 11 11 12
6 6 6 4 4 4 5 3 1 2 3 4 4 3 3 1 1 6 10 11 11 11 10 9 8 9 9 7 7 6 5 5 6 6 7 9 10 11 11 12 13 15 17 17 18 18 18 17 16 14 13 14 14 14 13 12 10 9 9 8 6 4 3 1 5 8 11 12 12 11 12 14 15 15 15 16 16 15 15 17 17 17 17 16 15 14 13 14 14 14 13 12 12 12 11 12 12
Wind_Direction
113 103 91 84 26 14 20 9 214 67 149 235 178 247 213 213 337 289 286 305 275 34 346 318 350 238 178 115 161 107 34 102 85 66 135 18 125 155 150 149 148 145 146 148 151 152 154 155 155 155 154 154 154 153 151 150 149 148 148 147 145 143 138 131 129 128 128 128 126 123 122 123 123 124 124 123 123 122 122 120 116 112 112 114 114 114 112 111 110 109 108 105 102 101 100 100 98
113 103 81 84 36 17 158 352 248 83 213 236 196 209 44 115 89 254 293 330 305 22 24 17 78 34 303 112 120 117 67 52 47 76 64 66 123 137 145 148 148 146 144 148 151 151 151 155 155 154 154 155 155 153 152 150 149 148 145 143 141 138 131 128 128 130 130 127 124 122 124 126 125 125 126 125 125 124 124 121 117 114 113 115 116 116 115 113 112 111 108 106 105 105 103 97 94
113 99 70 90 41 14 125 355 242 144 211 233 222 199 103 119 144 181 283 313 320 311 316 322 260 331 286 173 97 69 82 62 67 88 86 106 128 134 142 147 148 145 143 148 151 150 149 155 156 155 156 156 155 154 151 149 148 145 140 136 133 131 127 127 129 131 129 125 124 125 126 128 126 127 129 128 126 127 127 123 118 116 115 116 117 116 116 114 113 111 110 111 111 108 102 94 88
117 91 43 351 80 29 132 47 189 172 207 222 256 182 167 143 152 178 264 286 292 271 286 316 273 2 321 57 20 1 80 73 60 71 114 107 135 141 140 147 148 142 142 149 151 149 148 154 156 155 156 157 157 154 152 148 145 141 137 132 129 129 127 128 130 130 127 124 121 122 125 128 127 127 130 128 127 130 129 125 121 120 120 119 118 116 115 113 112 112 114 116 113 105 96 90 85
116 82 36 347 192 64 129 99 112 200 211 171 309 125 154 166 155 225 283 288 279 260 231 268 14 36 347 30 359 349 59 86 70 62 106 101 139 144 140 146 145 140 142 149 150 148 149 155 156 156 157 158 158 155 153 148 144 139 135 131 130 130 129 131 132 130 128 127 124 121 123 126 127 129 132 131 131 132 132 132 128 126 127 125 122 120 117 115 114 114 117 116 111 101 94 89 86
117 88 43 44 124 17 156 191 174 217 230 173 264 58 119 193 251 270 295 313 272 239 215 223 2 81 117 50 10 31 23 9 77 53 78 121 147 147 142 143 142 141 143 148 150 147 151 155 155 156 158 160 158 155 153 148 143 137 133 132 132 132 131 134 133 132 132 129 126 124 123 123 124 131 136 136 138 137 137 141 136 130 131 128 125 124 121 119 116 117 119 113 107 100 94 91 86
126 121 41 73 103 343 206 228 215 230 229 176 248 310 114 195 270 282 310 333 210 152 184 194 126 162 120 108 93 64 29 21 40 38 81 129 146 150 146 144 142 143 146 149 149 147 153 157 154 156 158 160 158 155 151 146 141 135 135 134 134 134 134 137 135 135 135 130 127 124 123 121 122 129 134 140 144 143 141 144 141 133 131 131 127 126 124 121 118 119 116 108 102 98 96 94 88
103 91 341 169 119 1 198 231 241 230 219 197 254 267 244 224 244 278 300 311 243 113 160 140 131 196 128 144 125 91 40 37 43 64 118 135 145 150 145 145 144 143 147 148 149 150 155 156 154 156 158 158 157 154 149 145 142 139 139 137 138 140 138 139 138 139 136 131 128 127 125 123 125 129 130 137 143 144 144 145 144 136 131 132 129 129 127 124 121 117 111 103 99 97 98 96 91
67 34 195 202 155 134 185 252 258 233 250 254 260 257 257 246 233 256 263 246 263 225 176 144 178 249 140 147 87 106 47 42 63 89 122 136 146 149 143 146 143 144 146 147 151 151 154 155 154 155 156 157 156 153 149 147 145 143 142 139 142 144 140 141 143 141 137 134 132 130 128 128 131 133 132 134 135 137 140 141 144 141 135 135 135 133 129 126 124 119 109 101 99 98 100 100 96
49 17 153 129 166 218 236 240 256 238 254 263 271 266 261 249 229 230 240 253 247 197 165 134 215 154 140 147 91 97 49 57 83 98 118 132 146 148 142 144 141 143 144 146 151 149 153 155 154 153 153 156 155 153 151 149 148 145 143 142 144 144 142 143 144 141 138 139 136 134 134 135 137 134 135 137 135 136 139 142 147 145 140 139 137 134 131 130 130 123 110 102 100 99 103 104 101
114 49 141 157 181 221 234 240 252 264 275 285 284 269 262 255 220 214 225 234 226 181 157 181 195 135 138 131 100 84 69 87 92 105 121 130 144 145 141 143 139 142 144 147 151 148 150 153 154 150 152 154 154 155 153 151 149 146 145 144 144 144 145 145 144 142 142 142 139 139 140 139 138 134 137 139 139 144 147 149 150 147 144 142 138 136 137 139 135 124 112 106 101 101 106 106 103
167 118 174 181 199 222 228 255 267 285 289 299 301 303 326 231 194 193 197 184 175 164 166 205 164 133 149 103 108 98 83 94 100 115 127 133 143 144 143 142 140 143 145 147 150 150 149 149 152 149 150 154 155 155 151 150 149 148 148 146 145 146 146 145 145 145 145 146 144 143 143 141 138 134 134 138 144 150 152 151 149 148 146 145 143 144 146 147 139 126 117 109 101 102 108 109 105
170 141 167 172 202 205 192 262 275 299 300 323 317 330 357 202 205 193 168 150 158 159 159 181 134 109 157 95 106 107 94 102 113 125 131 139 142 143 144 141 140 144 145 147 148 151 151 149 150 150 152 154 155 154 151 150 150 150 149 147 147 148 148 147 148 148 148 150 147 146 145 142 141 140 137 138 145 150 153 154 154 155 153 151 152 153 152 151 142 129 121 110 102 106 112 113 109
154 164 191 169 104 185 207 263 272 287 295 13 327 319 331 299 276 188 147 136 153 151 90 103 125 168 144 141 128 117 117 117 125 128 133 142 139 139 140 138 140 142 144 147 149 151 152 152 151 152 153 151 152 151 151 152 151 152 150 150 151 152 151 150 152 153 152 151 147 149 148 143 143 145 143 142 140 145 153 157 159 162 163 163 161 157 155 153 145 134 123 110 105 112 117 117 112
167 158 138 160 150 205 216 236 309 283 286 16 354 330 338 36 354 154 127 137 143 30 83 87 34 292 190 174 108 125 137 130 129 127 129 136 137 136 134 136 137 140 146 148 151 153 154 155 155 155 152 150 150 149 152 155 155 154 154 155 155 155 153 152 155 154 153 152 146 147 148 148 149 150 149 147 144 145 153 158 160 162 166 169 164 158 157 156 147 136 124 112 113 120 121 120 115
162 143 103 185 189 203 203 186 194 293 312 279 352 338 358 66 29 127 344 176 136 79 89 74 24 355 1 18 83 130 139 133 132 130 127 130 133 135 133 137 136 139 149 152 155 158 159 159 158 157 154 153 152 151 153 156 159 158 158 159 157 158 156 155 156 153 153 152 147 145 146 150 153 155 154 153 151 150 156 161 162 164 168 169 165 160 159 156 147 135 126 121 124 129 126 122 117
159 172 156 179 199 205 196 190 187 198 328 300 348 354 347 62 46 100 73 105 124 107 58 70 47 28 30 70 116 135 137 133 132 131 130 132 133 133 134 139 138 141 147 153 160 162 163 163 160 158 156 157 156 155 154 158 164 162 162 162 161 161 159 158 156 154 154 154 153 150 150 154 156 159 158 158 156 154 159 162 164 167 170 170 166 162 161 157 147 134 130 131 131 134 130 124 119
187 172 176 203 202 205 197 198 193 230 332 321 336 349 325 326 89 115 107 84 100 119 89 94 81 61 77 108 125 135 135 134 134 131 131 136 139 136 139 144 145 147 149 153 159 164 166 164 163 160 159 161 160 160 159 162 166 165 165 164 164 165 163 160 157 157 156 157 161 159 160 164 165 165 165 165 160 159 164 163 164 165 167 170 167 163 164 159 147 136 136 138 136 136 134 129 126
195 130 200 216 194 202 205 211 225 255 317 323 326 341 325 328 98 132 186 115 141 164 132 116 120 93 101 119 131 136 135 135 137 135 133 137 144 147 148 152 153 153 156 157 158 165 166 165 165 163 165 167 166 167 167 167 168 167 166 166 166 167 166 164 162 162 161 163 167 168 171 171 170 172 173 171 163 161 166 167 164 161 162 166 164 163 166 161 148 140 140 141 138 138 138 135 135
195 160 218 222 196 246 234 226 243 246 301 317 321 339 333 311 87 320 190 141 178 199 181 188 186 153 136 132 138 139 138 137 138 139 141 141 145 151 151 154 157 155 161 161 162 169 169 167 167 166 171 174 174 174 171 170 170 168 169 171 170 171 171 173 172 169 169 171 175 178 177 175 174 177 180 175 166 163 167 170 166 160 158 160 160 160 163 161 151 144 142 143 142 142 143 141 141
169 195 225 202 136 257 235 213 246 254 269 294 313 331 339 331 332 244 174 151 196 231 221 220 182 160 151 144 144 144 141 141 143 143 147 150 152 153 146 154 162 156 160 162 164 172 173 172 170 171 176 180 182 179 175 173 171 169 174 176 175 176 176 177 178 177 178 179 183 183 178 177 177 180 184 180 174 171 172 173 169 161 159 160 160 160 162 162 155 149 146 145 146 146 145 144 144
173 212 253 229 168 259 256 201 242 237 176 257 312 320 340 334 298 214 190 166 169 266 280 303 108 146 151 147 147 146 144 145 148 149 153 158 163 161 146 152 164 159 161 167 169 173 175 176 174 176 180 184 185 182 178 176 173 174 178 180 179 179 180 180 182 184 187 187 188 186 182 180 179 180 185 186 183 181 178 177 177 170 165 164 163 163 164 164 160 154 151 149 149 147 145 145 144
206 216 257 241 223 248 273 22 209 182 290 287 304 311 332 299 290 237 218 252 329 320 315 91 114 136 143 143 146 146 149 150 154 160 165 163 167 173 161 154 162 167 169 170 174 178 180 181 181 183 186 186 186 185 182 180 181 182 183 182 181 181 183 183 184 190 194 193 192 192 189 184 182 183 185 190 189 185 183 182 184 177 168 165 163 166 168 169 167 160 155 151 149 147 146 146 146
231 225 238 236 228 242 261 284 247 262 278 272 281 313 298 262 272 224 242 292 327 332 87 115 119 131 136 141 145 148 152 155 162 169 172 169 170 176 175 167 165 170 173 173 178 186 187 186 189 192 192 189 186 187 187 187 188 187 185 183 183 185 185 188 190 194 196 196 198 197 193 188 187 187 187 191 190 190 188 184 186 183 175 168 165 169 172 174 171 165 159 152 150 150 149 150 151
221 227 234 232 229 242 258 272 264 263 261 259 258 255 255 248 147 167 242 312 354 80 113 117 122 130 135 141 145 151 156 159 166 171 172 175 177 178 182 183 177 174 176 178 180 186 188 190 196 198 197 192 189 193 194 194 192 187 186 185 187 189 189 194 196 195 197 197 199 201 197 193 191 189 189 190 193 195 192 186 186 188 184 174 169 172 175 177 174 168 162 155 152 153 153 155 155
208 217 225 237 248 276 277 277 263 249 252 213 210 216 228 255 140 175 247 328 114 125 116 120 127 132 137 143 147 155 160 165 169 171 174 178 183 186 188 188 187 186 184 181 180 184 189 194 200 199 196 196 196 200 201 199 197 191 188 188 192 194 195 200 200 197 201 202 201 202 202 200 197 191 188 188 194 198 195 193 190 193 192 179 172 174 177 178 174 170 167 161 155 156 159 159 158
187 206 231 244 261 300 274 276 271 274 264 208 215 207 132 237 210 195 210 193 167 135 123 128 135 137 143 147 152 161 165 171 172 171 173 178 186 193 194 193 194 194 192 189 191 196 198 198 199 194 196 203 206 208 207 205 205 204 199 194 197 200 203 206 205 203 206 208 208 208 205 204 205 200 194 188 193 199 199 201 196 195 198 188 178 177 179 180 176 174 172 167 163 164 167 166 166
167 188 227 243 260 274 245 265 272 271 276 200 199 183 135 142 206 230 181 176 177 146 138 140 142 144 151 155 157 165 171 175 174 174 178 185 191 195 199 201 200 196 197 199 203 209 206 199 194 193 203 212 212 208 207 209 212 216 211 201 203 207 210 211 209 210 213 213 213 215 211 208 208 207 201 192 193 199 202 204 200 197 197 194 189 184 184 184 179 178 175 173 172 170 169 168 171
165 176 220 235 259 256 235 256 251 209 258 175 178 186 170 167 170 192 175 170 171 155 149 148 152 157 159 163 165 168 176 177 178 184 190 192 195 201 205 206 202 199 204 206 209 215 209 204 199 200 213 217 215 210 213 221 217 218 219 211 210 212 217 220 216 217 221 221 219 220 220 216 212 210 207 200 198 204 207 204 200 199 198 197 196 193 193 191 185 181 176 173 175 174 168 166 171
158 165 241 245 246 254 226 87 140 193 225 203 208 216 187 190 182 172 175 172 168 162 161 164 166 170 168 170 172 174 181 180 182 190 194 196 202 210 213 210 203 202 209 208 210 213 208 212 216 218 223 222 223 226 229 232 222 215 218 218 217 218 226 230 225 224 226 228 228 227 226 221 215 212 210 208 204 207 209 203 199 200 202 202 201 201 201 200 193 185 179 174 174 176 170 166 169
156 149 209 257 215 231 34 86 164 195 184 222 233 231 206 242 207 174 178 181 181 172 168 175 177 178 182 183 181 182 187 182 183 192 191 196 207 211 213 208 201 201 209 209 207 209 207 212 217 217 221 220 222 226 227 230 223 215 215 223 223 226 237 238 234 232 231 235 240 239 232 222 218 215 214 215 211 211 208 202 200 199 202 206 207 207 206 205 199 192 187 179 174 173 169 165 165
132 171 171 164 206 233 350 108 189 213 58 43 226 222 236 267 256 155 178 190 198 187 167 175 188 192 191 190 192 187 173 164 174 194 195 199 207 206 204 199 197 203 212 211 204 207 208 210 214 213 218 222 223 226 227 224 221 219 223 231 226 228 247 247 244 242 240 245 248 248 237 226 226 226 222 223 222 221 214 206 204 198 198 205 209 210 208 207 203 197 193 187 181 173 164 163 160
92 215 168 146 190 217 344 107 197 244 75 144 229 246 174 251 354 117 174 192 199 204 189 193 204 207 206 202 205 189 147 136 155 192 206 207 205 203 202 197 200 209 216 212 202 204 208 212 216 216 224 228 227 234 236 228 224 225 231 232 226 232 250 246 242 245 250 253 249 251 246 234 232 235 237 235 234 234 224 214 210 199 193 198 204 207 209 209 205 199 191 188 188 178 163 158 157
146 195 145 142 188 199 218 128 115 192 176 190 213 249 215 296 352 129 167 190 198 203 204 210 221 221 225 228 221 175 119 109 119 172 212 208 188 175 186 193 203 214 219 211 204 204 206 216 219 217 223 225 227 236 241 236 231 228 230 231 230 233 238 235 235 244 255 261 262 264 253 241 237 241 246 243 240 242 237 226 218 206 194 193 196 201 206 207 204 201 190 183 186 180 166 158 160
159 168 161 148 168 193 216 171 102 106 177 182 190 229 243 268 321 122 157 188 206 216 213 219 239 242 239 248 242 127 91 79 91 139 194 184 150 144 154 167 194 218 223 205 198 202 204 215 214 211 220 220 222 232 239 237 230 224 225 229 231 228 224 225 232 242 248 253 264 272 263 255 253 250 250 248 242 244 243 236 228 217 203 194 191 196 202 202 200 198 193 185 176 174 170 163 160
160 165 170 153 154 187 227 241 299 3 133 175 194 221 235 241 306 65 131 184 206 221 227 230 240 242 238 249 255 79 73 73 94 121 132 125 125 135 141 142 162 190 211 197 191 198 203 212 202 208 227 229 227 232 237 235 221 212 210 216 227 226 220 222 235 242 243 243 251 267 270 267 266 258 253 251 246 242 240 240 238 228 214 203 194 196 201 200 199 197 192 183 168 160 166 163 159
138 130 145 139 156 183 200 246 343 359 207 187 200 216 235 268 18 28 48 183 205 220 231 239 242 239 242 260 304 61 76 87 100 103 99 103 107 109 110 115 123 131 162 182 193 203 207 214 209 217 233 236 233 233 234 231 218 211 206 204 215 218 217 223 237 242 240 239 243 255 263 263 264 262 255 253 250 242 236 242 244 233 221 213 202 202 203 200 201 199 191 180 169 161 161 167 168
123 124 134 133 181 186 156 127 12 358 211 234 160 186 345 12 24 25 37 174 197 225 234 241 250 247 249 273 303 81 106 106 102 96 97 100 98 96 95 101 114 118 146 167 188 213 222 225 221 224 230 232 236 236 232 228 224 222 218 209 209 210 214 219 225 231 232 234 240 249 254 252 253 256 253 254 252 241 231 237 246 237 223 215 208 205 204 202 201 198 189 180 176 171 166 172 172
125 130 145 153 175 207 183 93 9 5 201 292 126 118 45 25 30 38 40 132 150 324 252 246 260 253 246 256 256 171 119 108 97 93 98 99 96 93 91 93 95 81 104 167 196 227 230 226 225 230 232 227 231 236 237 237 237 239 237 227 219 214 216 219 220 223 226 229 234 241 247 246 246 248 248 251 252 244 233 230 237 236 225 215 209 204 202 204 202 195 188 182 176 173 172 177 179
138 153 172 162 146 200 182 128 11 24 15 198 126 103 58 38 41 48 37 24 37 22 7 10 345 274 235 194 170 142 120 113 107 101 102 102 97 90 89 93 88 73 107 198 225 232 223 225 234 239 237 232 233 236 239 248 254 254 253 245 237 234 231 229 226 223 224 228 234 239 245 247 246 244 243 248 252 249 241 232 226 225 223 215 207 203 201 203 205 200 196 192 180 170 169 181 186
215 207 197 178 164 209 179 101 299 99 66 159 132 112 75 40 32 43 26 18 40 29 33 37 24 12 315 155 109 95 112 123 125 115 107 103 98 93 91 94 93 86 127 195 223 238 237 241 247 243 240 243 245 246 248 253 256 252 248 244 242 242 242 238 231 226 221 223 230 238 244 248 248 246 242 244 250 251 246 238 227 217 218 216 208 206 204 205 209 204 200 201 194 182 172 177 189
198 230 217 203 180 196 179 82 336 170 148 182 163 149 122 57 42 42 5 12 48 36 36 33 21 18 7 97 103 97 103 114 120 112 108 105 101 98 92 89 85 68 353 230 237 254 259 260 259 253 252 254 248 248 253 255 255 251 237 236 242 242 245 245 242 238 231 226 229 234 240 247 248 245 240 239 242 245 244 239 229 216 214 219 214 210 208 209 210 205 204 209 205 195 181 174 187
189 210 203 198 175 186 192 150 182 206 162 144 288 216 144 115 61 28 350 11 57 45 44 35 23 21 19 43 90 111 112 110 105 96 94 96 99 97 86 74 37 355 314 288 271 267 269 267 267 265 264 268 263 255 255 256 256 254 249 251 256 258 259 261 261 258 254 248 243 238 238 242 244 240 238 240 239 234 233 233 228 218 214 222 220 213 211 207 204 207 210 212 207 197 189 182 186
184 192 176 178 186 204 198 174 198 237 108 110 329 250 149 135 92 12 329 35 56 41 40 35 29 32 34 46 61 96 117 117 111 103 96 92 94 92 79 62 18 343 306 287 279 279 282 278 275 274 271 273 274 265 256 257 260 258 256 258 261 263 266 269 270 265 263 262 258 252 245 244 246 246 242 240 231 217 218 221 218 215 214 220 221 217 211 197 193 207 210 210 207 199 196 190 187
201 171 167 174 188 203 194 178 193 214 210 178 167 225 173 137 78 6 349 55 50 34 33 32 35 41 42 45 47 57 80 100 107 106 101 89 77 66 56 49 30 355 318 300 293 291 292 288 283 282 281 280 281 275 261 257 264 264 261 262 261 261 264 266 266 262 261 263 264 261 253 249 248 247 241 232 219 208 211 215 213 214 214 217 218 216 211 197 195 211 214 212 211 205 201 197 192
158 134 124 114 98 94 137 178 169 152 220 192 157 233 187 137 59 5 39 49 35 25 32 36 42 53 53 49 46 46 50 59 64 62 67 69 60 50 46 42 29 5 337 320 311 304 298 295 291 288 291 293 293 291 281 270 270 269 265 265 263 260 259 259 259 261 261 261 264 261 257 256 251 243 235 228 217 209 210 212 211 213 212 213 215 214 213 204 199 214 220 215 213 211 206 204 203
132 133 114 107 101 74 110 112 122 185 207 181 66 318 246 155 148 1 43 53 26 18 34 46 54 64 64 56 52 51 50 49 50 51 55 59 58 50 43 37 23 8 352 340 330 318 307 302 302 301 302 305 306 305 298 287 281 278 274 270 267 264 261 257 256 257 258 258 259 259 258 258 255 245 234 228 219 210 211 214 213 213 210 208 210 213 214 205 198 211 217 213 212 210 203 204 209
142 147 137 139 130 119 154 120 197 198 190 109 23 315 269 167 147 142 108 78 50 30 39 53 64 71 67 60 55 52 53 53 52 53 51 52 52 46 39 33 23 17 11 2 355 343 327 318 315 313 314 316 318 318 312 303 294 288 283 279 274 267 259 258 260 258 258 256 258 262 262 257 256 250 238 233 224 212 213 218 217 212 208 207 208 212 213 209 207 209 207 206 209 208 203 204 208
192 174 162 167 160 160 182 189 201 197 163 56 337 309 349 81 89 132 113 78 65 61 63 67 71 75 73 70 65 59 57 58 57 56 53 51 49 46 41 35 26 20 17 12 9 7 2 355 345 336 335 334 329 324 319 311 301 294 293 294 289 277 263 258 260 262 259 256 257 261 260 252 252 251 243 235 227 221 218 215 210 207 209 211 209 209 212 213 214 211 202 202 209 210 207 204 205
195 183 177 177 165 161 168 170 190 190 139 83 323 297 127 107 127 140 110 82 83 82 78 77 77 79 82 81 77 72 66 63 62 60 58 56 54 51 45 38 30 21 18 17 15 16 15 13 9 5 1 355 345 331 320 311 307 307 306 303 300 292 280 268 263 265 262 260 260 259 257 254 251 251 244 232 224 222 217 207 200 204 213 215 210 212 215 213 214 213 204 204 211 213 208 203 203
190 190 186 178 172 168 165 163 169 159 131 93 3 291 134 122 139 136 109 95 96 90 83 82 79 78 82 81 74 70 65 59 56 55 52 49 48 46 42 36 30 22 19 19 19 20 21 19 14 7 360 354 346 335 324 315 315 319 315 304 298 294 286 276 274 276 272 269 267 260 258 257 254 252 243 229 222 217 212 206 200 204 211 210 206 210 212 211 215 213 207 207 209 208 203 201 204
189 174 182 187 175 138 115 93 106 114 116 83 27 15 78 92 135 141 127 108 101 93 85 82 76 74 74 70 65 62 58 52 48 48 47 44 43 42 39 37 32 27 25 23 23 25 26 25 24 17 6 357 349 337 327 318 311 313 313 303 296 291 281 272 281 290 281 270 268 262 256 254 252 250 236 222 217 210 205 201 198 201 204 201 199 202 206 212 214 205 201 206 206 202 202 205 207
150 178 191 182 106 109 120 102 26 65 147 116 18 15 128 141 169 165 170 143 107 94 87 85 78 74 71 62 61 59 55 52 47 46 46 44 43 41 39 38 34 31 30 28 27 30 28 24 25 27 20 13 6 352 336 322 309 305 303 297 289 277 269 254 268 294 278 263 265 263 255 252 248 244 233 218 209 203 199 195 194 195 197 197 194 195 202 209 205 194 198 209 206 199 200 205 209
147 183 176 130 66 75 114 129 105 136 158 115 20 231 182 184 162 155 174 186 145 111 97 97 88 79 72 61 60 59 55 52 47 46 46 44 43 40 39 36 32 31 32 31 30 29 28 23 22 23 17 11 7 356 343 331 322 315 308 301 282 247 225 207 221 266 262 251 254 254 252 253 245 238 236 219 199 194 194 191 191 192 195 194 189 190 195 200 201 198 204 215 210 197 195 198 203
162 163 152 137 165 169 151 146 156 155 137 114 115 266 236 224 182 163 178 182 158 132 112 107 97 86 79 67 62 60 55 49 45 47 46 46 46 42 40 35 28 29 31 31 31 29 26 25 22 19 13 8 2 352 345 339 333 326 320 315 295 271 246 207 205 224 233 231 230 229 238 249 246 237 236 224 201 193 194 192 192 195 193 188 187 195 194 195 204 204 204 209 207 198 196 197 195
29 137 151 243 205 163 163 130 154 155 138 138 138 140 246 228 184 174 178 170 155 147 129 108 93 86 85 78 70 61 55 48 43 46 47 46 47 44 40 34 26 28 31 31 31 28 24 22 21 17 11 9 5 354 345 341 337 333 329 328 314 291 270 237 217 207 204 207 209 206 217 238 243 236 225 218 207 198 197 197 198 198 192 184 186 192 192 194 200 200 197 200 199 196 196 198 194
155 158 160 165 95 121 140 91 41 136 139 144 141 174 242 230 139 169 171 162 153 144 124 105 94 92 87 77 74 65 57 52 41 41 41 37 38 37 35 30 25 28 29 29 28 25 20 14 13 10 4 2 1 354 345 338 338 340 337 332 323 309 284 249 234 220 204 194 192 192 192 209 228 231 215 205 202 200 199 200 198 195 189 183 182 184 186 188 186 184 187 192 196 194 192 192 193
160 166 168 155 127 136 153 149 92 69 119 147 150 184 220 23 86 163 157 152 147 132 117 109 102 99 91 78 72 64 50 43 38 34 33 28 27 26 27 26 25 25 23 20 19 18 14 9 5 2 359 357 354 350 342 335 339 347 343 335 323 313 314 243 215 224 218 199 189 191 191 199 214 217 206 200 200 199 198 198 195 191 185 181 180 178 176 176 174 177 184 189 191 190 185 186 190